Regional Weather Roundup
Issued by NWS

Home | Current Version | Previous Version | Text Only | Print | Product List | Glossary On
Versions: 1 2 3 4 5 6 7 8 9 10 11 12 13 14 15 16 17 18 19 20 21 22 23 24 25 26 27 28 29 30 31 32 33 34 35 36 37 38 39 40 41 42 43 44 45 46 47 48 49 50
593
ASUS43 KMPX 191110
RWRMN
WEATHER ROUNDUP FOR MINNESOTA
NATIONAL WEATHER SERVICE TWIN CITIES/CHANHASSEN MN
600 AM CDT SAT AUG 19 2017


NOTE: "FAIR" INDICATES FEW OR NO CLOUDS BELOW 12,000 FEET WITH NO
SIGNIFICANT WEATHER AND/OR OBSTRUCTIONS TO VISIBILITY. N/A MEANS
CURRENT SKY AND/OR WEATHER CONDITIONS ARE NOT AVAILABLE.

MNZ060>063-068>070-191200-
   Twin Cities Metro

CITY           SKY/WX    TMP DP  RH WIND       PRES   REMARKS
TWIN CITIES    PTCLDY    60  57  89 CALM      29.93R
ST PAUL        CLEAR     57  57 100 CALM      29.93R FOG
CRYSTAL        CLEAR     54  52  93 CALM      29.91S FOG
BLAINE         CLEAR     57  57 100 S3        29.92R FOG
LAKEVILLE      FOG       52  52 100 CALM      29.93R VSB 1/2
EDEN PRAIRIE     N/A     58  57  97 S5        29.92R VSB<1/4
SOUTH ST PAUL  CLEAR     56  56  99 CALM      29.93R FOG
LAKE ELMO      FOG       54  54 100 CALM      29.93R VSB<1/4
$$
MNZ001>005-007-008-013>017-022>024-027-028-191200-
   Northwest Minnesota

CITY           SKY/WX    TMP DP  RH WIND       PRES   REMARKS
BEMIDJI        CLEAR     58  56  95 SW5       29.88R
HALLOCK        CLEAR     52  52 100 SE8       29.81S
ROSEAU         CLEAR     54  48  82 CALM      29.83S
WARROAD        CLEAR     55  52  88 CALM      29.83S
THIEF RVR FALL CLEAR     55  54  96 S6        29.87R
CROOKSTON      CLEAR     54  52  94 SE6       29.86R
FOSSTON        CLEAR     54  52  94 S6        29.89R FOG
DETROIT LAKES  CLEAR     57  55  94 S5        29.91S FOG
MOORHEAD       CLEAR     55  55 100 SE6       29.89R
PARK RAPIDS    CLOUDY    53  50  89 CALM      29.90R FOG
MAHNOMEN       FAIR      56  56  99 S6        29.88S
$$
MNZ006-009>011-018-025>026-191200-
   North Central Minnesota

CITY           SKY/WX    TMP DP  RH WIND       PRES   REMARKS
BAUDETTE       CLEAR     52  52 100 CALM      29.83S FOG
FLAG ISLAND    CLEAR     64  54  68 CALM      29.80S
INTL FALLS     FOG       50  48  93 CALM      29.85R VSB 1/4
WASKISH        CLEAR     55  54  94 CALM      29.86R
BIG FORK       FOG       52  50  93 CALM      29.87R VSB 1/4
LONGVILLE      FOG       55  55 100 SW3       29.89R VSB 1/2
GRAND RAPIDS   CLEAR     59  58  96 CALM      29.90R
CRANE LAKE     CLEAR     45  45 100 CALM      29.87R
ORR            CLEAR     54  52  94 CALM      29.84R FOG
COOK             N/A     52  52 100 CALM      29.87R FOG
WALKER         FAIR      57  55  95 SW3       29.89R
$$
MNZ012-019>021-037-191200-
   Northeast Minnesota

CITY           SKY/WX    TMP DP  RH WIND       PRES   REMARKS
DULUTH         CLEAR     57  57 100 NW6       29.88R
ELY            CLEAR     54  54 100 CALM      29.86R
HIBBING        PTCLDY    46  46 100 SE3       29.87S FOG
EVELETH        FOG       53  50  92 CALM      29.88R VSB 1
DULUTH HARBOR  CLEAR     57  55  94 S9        29.87R
TWO HARBORS    CLEAR     61  55  82 NW3       29.84R
SILVER BAY     CLEAR     59  57  94 NW3       29.84
GRAND MARAIS     N/A     63  59  87 SW6       29.80R
G MARAIS ARPRT CLEAR     54  50  87 CALM      29.86R
$$
MNZ029>031-032-039>041-046>048-054>057-064-191200-
   West Central Minnesota

CITY           SKY/WX    TMP DP  RH WIND       PRES   REMARKS
FERGUS FALLS   CLEAR     57  57 100 SE3       29.91R
WHEATON        CLEAR     55  52  88 CALM      29.92S
MORRIS         FOG       54  54 100 S3        29.91R VSB<1/4
ALEXANDRIA     CLEAR     53  53 100 CALM      29.93R FOG
ELBOW LAKE     FAIR      57  57 100 CALM      29.92R
WADENA         CLEAR     55  55 100 CALM      29.91R FOG
GLENWOOD       FOG       55  55 100 SW3       29.92S VSB 1/4
APPLETON       FOG       52  50  93 CALM      29.92R VSB 1/4
BENSON         FOG       52  50  93 CALM      29.93S VSB 1/4
ORTONVILLE     CLEAR     55  54  94 MISG      29.91S
MADISON        CLEAR     55  55 100 CALM      29.92R FOG
WILLMAR        FOG       54  54 100 CALM      29.94R VSB 1/4
$$
MNZ033>034-036-042>043-049>051-058-059-191200-
   Central Minnesota

CITY           SKY/WX    TMP DP  RH WIND       PRES   REMARKS
ST CLOUD       FOG       52  52 100 CALM      29.92R VSB 1/4
SAUK CENTRE    FOG       52  52 100 CALM      29.92S VSB 1/4
PAYNESVILLE    FOG       51  51 100 CALM      29.93R VSB 1/4
AITKIN         FOG       50  48  93 CALM      29.89R VSB 1/4
PINE RIVER     FOG       46  46 100 CALM      29.93S VSB<1/4
BRAINERD       CLEAR     55  55 100 CALM      29.91R FOG
STAPLES        CLEAR     54  54 100 CALM      29.91R
LONG PRAIRIE   FOG       52  52 100 CALM      29.92S VSB 1/4
LITTLE FALLS   FOG       50  50 100 CALM      29.91S VSB 1/4
LITCHFIELD       N/A     55  55 100 CALM      29.93R FOG
BUFFALO        FOG       54  53  95 CALM      29.93S VSB<1/4
MAPLE LAKE     CLEAR     54  54  99 CALM      29.93R FOG
HUTCHINSON     FOG       55  55 100 CALM      29.94R VSB 1/4
$$
MNZ037-044-045-052-053-191200-
   East Central Minnesota

CITY           SKY/WX    TMP DP  RH WIND       PRES   REMARKS
PRINCETON      FOG       52  52 100 CALM      29.92R VSB 1/4
MORA             N/A     50  50 100 CALM      29.92S FOG
CAMBRIDGE      MOCLDY    55  55 100 CALM      29.92R FOG
RUSH CITY      FOG       52  51  97 CALM      29.91S VSB 1/4
MOOSE LAKE     FOG       48  46  93 CALM      29.88R VSB 1/2
HINCKLEY       FOG       52  52 100 CALM      29.91R VSB 3/4
CLOQUET        CLEAR     57  55  94 W5        29.89R
MCGREGOR       MOCLDY    54  52  94 CALM      29.90R VSB 1/4
$$
MNZ071>073-080-081-089-090-097-098-191200-
   Southwest Minnesota

CITY           SKY/WX    TMP DP  RH WIND       PRES   REMARKS
MONTEVIDEO     FOG       54  54 100 CALM      29.93R VSB 1/4
GRANITE FALLS  FOG       56  56 100 CALM      29.94R VSB 1/2
CANBY          CLEAR     55  54  94 CALM      29.94R
MARSHALL       CLEAR     53  53 100 SW3       29.94R FOG
REDWOOD FALLS  FOG       56  55  97 SW5       29.93R VSB 1/4
OLIVIA         FOG       52  50  93 CALM      29.92S VSB 3/4
PIPESTONE      FOG       54  52  94 CALM      29.96R VSB 3/4
WINDOM         DRZL/FOG  55  54  94 CALM      29.96R VSB 1/4
WORTHINGTON    FOG       57  57 100 CALM      29.97R VSB 1/4
JACKSON        FOG       52  52 100 CALM      29.89F VSB 1/2
TRACY          FOG       59  59 100 CALM      29.94S VSB 1/4
SLAYTON        FOG       58  55  88 CALM      29.95F VSB 1/4
$$
MNZ065>067-074>077-082>085-091>093-191200-
   South Central Minnesota

CITY           SKY/WX    TMP DP  RH WIND       PRES   REMARKS
MANKATO        FOG       57  57 100 CALM      29.95R VSB 3/4
NEW ULM        FOG       55  55 100 S3        29.94R VSB 1/4
ST JAMES       CLOUDY    57  55  94 CALM      29.95S FOG
FAIRMONT       FOG       54  54 100 CALM      29.96R VSB 1/4
GLENCOE          N/A     55  55 100 CALM      29.93R FOG
FARIBAULT      FOG       55  54  94 CALM      29.94R VSB 3/4
OWATONNA       CLEAR     54  52  94 CALM      29.94R FOG
WASECA         CLEAR     52  50  93 CALM      29.96R FOG
ALBERT LEA     MOCLDY    57  55  94 CALM      29.95R FOG
$$
MNZ078>079-086>088-094>096-191200-
   Southeast Minnesota

CITY           SKY/WX    TMP DP  RH WIND       PRES   REMARKS
ROCHESTER      CLEAR     51  51 100 S7        29.95S
RED WING       DRZL/FOG  55  54  94 CALM      29.92S VSB 1/4
STANTON          N/A     53  52  96 CALM      29.92S FOG
DODGE CENTER   CLEAR     52  50  93 CALM      29.95R FOG
WINONA         FOG       55  55 100 CALM      29.94R VSB 1
AUSTIN         CLEAR     54  52  94 CALM      29.94S FOG
PRESTON        CLEAR     54  52  93 W5        29.95S
$$
ABBREVIATIONS USED IN REMARKS
   TC - TEMPERATURES IN CELSIUS
  WCI - WIND CHILL INDEX
   HX - HEAT INDEX
  VSB - VISIBILITY
$$




USA.gov is the U.S. government's official web portal to all federal, state and local government web resources and services.